ProjectID,Date,Electric Generation,Electric Utility Import,Facility Electric Load
,YYYY-MM-DD,kW,kW,kW
89,2011-02-17,0.0,,0.0
89,2011-02-18,0.0,,0.0
89,2011-02-19,0.0,,0.0
89,2011-02-20,0.0,,0.0
89,2011-02-21,0.0,,0.0
89,2011-02-22,0.0,,0.0
89,2011-02-23,0.0,,0.0
89,2011-02-24,0.0,,0.0
89,2011-02-25,0.0,,0.0
89,2011-02-26,0.0,,0.0
89,2011-02-27,0.0,,0.0
89,2011-02-28,0.0,,0.0
89,2011-03-01,0.0,,0.0
89,2011-03-02,0.0,,0.0
89,2011-03-03,0.0,,0.0
89,2011-03-04,0.0,,0.0
89,2011-03-05,0.0,,0.0
89,2011-03-06,0.0,,0.0
89,2011-03-07,0.0,,0.0
89,2011-03-08,0.03791666666666667,,0.03791666666666667
89,2011-03-09,0.04041666666666666,,0.04041666666666666
89,2011-03-10,0.0,,0.0
89,2011-03-11,0.0,,0.0
89,2011-03-12,0.0,,0.0
89,2011-03-13,0.0,,0.0
89,2011-03-14,0.0,,0.0
89,2011-03-15,0.0,,0.0
89,2011-03-16,0.0,,0.0
89,2011-03-17,0.0,,0.0
89,2011-03-18,0.0,,0.0
89,2011-03-19,0.0,,0.0
89,2011-03-20,0.0,,0.0
89,2011-03-21,0.0,,0.0
89,2011-03-22,0.0,,0.0
89,2011-03-23,0.0,,0.0
89,2011-03-24,0.0,,0.0
89,2011-03-25,0.0,,0.0
89,2011-03-26,0.0,,0.0
89,2011-03-27,0.0,,0.0
89,2011-03-28,0.0,,0.0
89,2011-03-29,0.0,,0.0
89,2011-03-30,24.399083333333333,,24.399083333333333
89,2011-03-31,0.7041666666666666,,0.7041666666666666
89,2011-04-01,1.1333333333333333,,1.1333333333333333
89,2011-04-02,0.0,,0.0
89,2011-04-03,0.0,,0.0
89,2011-04-04,0.0,,0.0
89,2011-04-05,3.8708333333333336,,3.8708333333333336
89,2011-04-06,1.0916666666666666,,1.0916666666666666
89,2011-04-07,13.812416666666666,,13.812416666666666
89,2011-04-08,0.0,,0.0
89,2011-04-09,0.0,,0.0
89,2011-04-10,0.0,,0.0
89,2011-04-11,0.0,,0.0
89,2011-04-12,98.91950000000001,,98.91950000000001
89,2011-04-13,200.935625,,200.935625
89,2011-04-14,230.04712500000002,,230.04712500000002
89,2011-04-15,161.08720833333334,,161.08720833333334
89,2011-04-16,91.76666666666667,,91.76666666666667
89,2011-04-17,89.6875,,89.6875
89,2011-04-18,49.64558333333333,,49.64558333333333
89,2011-04-19,74.19120833333334,,74.19120833333334
89,2011-04-20,168.39045833333333,,168.39045833333333
89,2011-04-21,128.99954166666666,,128.99954166666666
89,2011-04-22,160.50358333333332,,160.50358333333332
89,2011-04-23,147.34733333333332,,147.34733333333332
89,2011-04-24,149.45325,,149.45325
89,2011-04-25,170.4695,,170.4695
89,2011-04-26,227.52695833333334,,227.52695833333334
89,2011-04-27,216.165625,,216.165625
89,2011-04-28,235.24945833333334,,235.24945833333334
89,2011-04-29,192.037375,,192.037375
89,2011-04-30,148.15191666666666,,148.15191666666666
89,2011-05-01,143.520625,,143.520625
89,2011-05-02,176.21408333333332,,176.21408333333332
89,2011-05-03,186.8235,,186.8235
89,2011-05-04,165.27366666666668,,165.27366666666668
89,2011-05-05,134.00304166666666,,134.00304166666666
89,2011-05-06,163.32170833333333,,163.32170833333333
89,2011-05-07,141.70866666666666,,141.70866666666666
89,2011-05-08,90.0,,90.0
89,2011-05-09,137.92054166666665,,137.92054166666665
89,2011-05-10,206.75945833333333,,206.75945833333333
89,2011-05-11,174.86266666666666,,174.86266666666666
89,2011-05-12,71.04454166666666,,71.04454166666666
89,2011-05-13,152.20958333333334,,152.20958333333334
89,2011-05-14,148.35608333333332,,148.35608333333332
89,2011-05-15,152.72195833333333,,152.72195833333333
89,2011-05-16,145.0535,,145.0535
89,2011-05-17,31.620708333333337,,31.620708333333337
89,2011-05-18,112.31491666666666,,112.31491666666666
89,2011-05-19,212.14891666666665,,212.14891666666665
89,2011-05-20,188.97529166666666,,188.97529166666666
89,2011-05-21,160.42941666666667,,160.42941666666667
89,2011-05-22,142.82104166666667,,142.82104166666667
89,2011-05-23,154.62008333333333,,154.62008333333333
89,2011-05-24,87.77375,,87.77375
89,2011-05-25,0.0,,0.0
89,2011-05-26,0.0,,0.0
89,2011-05-27,0.0,,0.0
89,2011-05-28,0.0,,0.0
89,2011-05-29,0.0,,0.0
89,2011-05-30,0.0,,0.0
89,2011-05-31,56.35125,,56.35125
89,2011-06-01,108.94941666666666,,108.94941666666666
89,2011-06-02,97.57608333333333,,97.57608333333333
89,2011-06-03,147.41195833333333,,147.41195833333333
89,2011-06-04,94.60266666666666,,94.60266666666666
89,2011-06-05,98.68583333333333,,98.68583333333333
89,2011-06-06,166.96170833333335,,166.96170833333335
89,2011-06-07,172.711375,,172.711375
89,2011-06-08,158.545375,,158.545375
89,2011-06-09,185.0644583333333,,185.0644583333333
89,2011-06-10,190.34166666666667,,190.34166666666667
89,2011-06-11,144.98945833333332,,144.98945833333332
89,2011-06-12,153.83258333333333,,153.83258333333333
89,2011-06-13,182.26791666666668,,182.26791666666668
89,2011-06-14,168.25541666666666,,168.25541666666666
89,2011-06-15,171.55491666666668,,171.55491666666668
89,2011-06-16,180.16629166666667,,180.16629166666667
89,2011-06-17,184.77874999999997,,184.77874999999997
89,2011-06-18,147.553,,147.553
89,2011-06-19,137.05383333333333,,137.05383333333333
89,2011-06-20,160.92595833333334,,160.92595833333334
89,2011-06-21,163.225,,163.225
89,2011-06-22,188.41987500000002,,188.41987500000002
89,2011-06-23,205.45433333333335,,205.45433333333335
89,2011-06-24,179.4824583333333,,179.4824583333333
89,2011-06-25,152.96875,,152.96875
89,2011-06-26,151.65270833333332,,151.65270833333332
89,2011-06-27,193.25120833333335,,193.25120833333335
89,2011-06-28,216.2123333333333,,216.2123333333333
89,2011-06-29,214.02695833333334,,214.02695833333334
89,2011-06-30,200.14904166666668,,200.14904166666668
89,2011-07-01,176.45854166666666,,176.45854166666666
89,2011-07-02,145.98600000000002,,145.98600000000002
89,2011-07-03,124.55358333333334,,124.55358333333334
89,2011-07-04,0.0,,0.0
89,2011-07-05,55.56645833333334,,55.56645833333334
89,2011-07-06,41.55383333333334,,41.55383333333334
89,2011-07-07,0.0,,0.0
89,2011-07-08,0.0,,0.0
89,2011-07-09,0.0,,0.0
89,2011-07-10,0.0,,0.0
89,2011-07-11,0.0,,0.0
89,2011-07-12,0.0,,0.0
89,2011-07-13,0.0,,0.0
89,2011-07-14,0.0,,0.0
89,2011-07-15,98.94375000000001,,98.94375000000001
89,2011-07-16,53.119499999999995,,53.119499999999995
89,2011-07-17,150.07129166666667,,150.07129166666667
89,2011-07-18,187.60270833333334,,187.60270833333334
89,2011-07-19,214.9656666666667,,214.9656666666667
89,2011-07-20,181.7804583333333,,181.7804583333333
89,2011-07-21,195.55979166666668,,195.55979166666668
89,2011-07-22,230.591,,230.591
89,2011-07-23,179.0875,,179.0875
89,2011-07-24,160.157125,,160.157125
89,2011-07-25,181.16429166666668,,181.16429166666668
89,2011-07-26,190.89133333333334,,190.89133333333334
89,2011-07-27,177.81604166666668,,177.81604166666668
89,2011-07-28,186.45816666666667,,186.45816666666667
89,2011-07-29,181.537,,181.537
89,2011-07-30,142.01545833333333,,142.01545833333333
89,2011-07-31,131.67658333333333,,131.67658333333333
89,2011-08-01,165.89520833333333,,165.89520833333333
89,2011-08-02,173.33266666666668,,173.33266666666668
89,2011-08-03,177.37062500000002,,177.37062500000002
89,2011-08-04,167.63658333333333,,167.63658333333333
89,2011-08-05,165.665875,,165.665875
89,2011-08-06,137.59854166666665,,137.59854166666665
89,2011-08-07,137.886125,,137.886125
89,2011-08-08,143.48145833333334,,143.48145833333334
89,2011-08-09,124.96612499999999,,124.96612499999999
89,2011-08-10,168.94670833333333,,168.94670833333333
89,2011-08-11,149.924375,,149.924375
89,2011-08-12,126.65387500000001,,126.65387500000001
89,2011-08-13,78.46766666666666,,78.46766666666666
89,2011-08-14,123.27404166666668,,123.27404166666668
89,2011-08-15,156.29845833333334,,156.29845833333334
89,2011-08-16,155.40741666666665,,155.40741666666665
89,2011-08-17,162.57404166666666,,162.57404166666666
89,2011-08-18,133.53666666666666,,133.53666666666666
89,2011-08-19,133.85720833333332,,133.85720833333332
89,2011-08-20,61.28270833333334,,61.28270833333334
89,2011-08-21,121.38241666666666,,121.38241666666666
89,2011-08-22,110.72395833333333,,110.72395833333333
89,2011-08-23,135.57854166666667,,135.57854166666667
89,2011-08-24,156.26179166666665,,156.26179166666665
89,2011-08-25,160.634125,,160.634125
89,2011-08-26,153.89083333333335,,153.89083333333335
89,2011-08-27,157.42491666666666,,157.42491666666666
89,2011-08-28,120.601875,,120.601875
89,2011-08-29,134.686375,,134.686375
89,2011-08-30,148.75050000000002,,148.75050000000002
89,2011-08-31,104.11979166666667,,104.11979166666667
89,2011-09-01,151.65608333333333,,151.65608333333333
89,2011-09-02,148.41595833333335,,148.41595833333335
89,2011-09-03,130.08575,,130.08575
89,2011-09-04,130.31954166666665,,130.31954166666665
89,2011-09-05,124.23087500000001,,124.23087500000001
89,2011-09-06,154.69708333333332,,154.69708333333332
89,2011-09-07,167.81933333333333,,167.81933333333333
89,2011-09-08,171.2325,,171.2325
89,2011-09-09,159.62,,159.62
89,2011-09-10,135.63033333333334,,135.63033333333334
89,2011-09-11,120.5675,,120.5675
89,2011-09-12,166.52391666666668,,166.52391666666668
89,2011-09-13,176.55783333333332,,176.55783333333332
89,2011-09-14,195.87333333333333,,195.87333333333333
89,2011-09-15,163.023625,,163.023625
89,2011-09-16,153.641625,,153.641625
89,2011-09-17,126.63591666666667,,126.63591666666667
89,2011-09-18,104.44212499999999,,104.44212499999999
89,2011-09-19,89.4495,,89.4495
89,2011-09-20,155.308,,155.308
89,2011-09-21,117.20375,,117.20375
89,2011-09-22,160.41204166666668,,160.41204166666668
89,2011-09-23,166.58587500000002,,166.58587500000002
89,2011-09-24,122.04866666666668,,122.04866666666668
89,2011-09-25,135.530875,,135.530875
89,2011-09-26,170.40354166666665,,170.40354166666665
89,2011-09-27,183.33525,,183.33525
89,2011-09-28,159.49695833333334,,159.49695833333334
89,2011-09-29,155.03295833333334,,155.03295833333334
89,2011-09-30,147.81279166666667,,147.81279166666667
89,2011-10-01,120.316125,,120.316125
89,2011-10-02,114.692625,,114.692625
89,2011-10-03,111.54495833333334,,111.54495833333334
89,2011-10-04,122.08679166666667,,122.08679166666667
89,2011-10-05,182.678625,,182.678625
89,2011-10-06,168.99458333333334,,168.99458333333334
89,2011-10-07,148.59045833333332,,148.59045833333332
89,2011-10-08,136.75754166666667,,136.75754166666667
89,2011-10-09,156.12204166666666,,156.12204166666666
89,2011-10-10,187.51204166666665,,187.51204166666665
89,2011-10-11,196.22299999999998,,196.22299999999998
89,2011-10-12,169.85975,,169.85975
89,2011-10-13,199.64991666666666,,199.64991666666666
89,2011-10-14,205.12924999999998,,205.12924999999998
89,2011-10-15,127.97995833333333,,127.97995833333333
89,2011-10-16,136.318625,,136.318625
89,2011-10-17,172.14087500000002,,172.14087500000002
89,2011-10-18,181.24104166666666,,181.24104166666666
89,2011-10-19,42.453875000000004,,42.453875000000004
89,2011-10-20,0.0,,0.0
89,2011-10-21,27.403833333333335,,27.403833333333335
89,2011-10-22,128.23291666666668,,128.23291666666668
89,2011-10-23,124.67975,,124.67975
89,2011-10-24,159.69779166666666,,159.69779166666666
89,2011-10-25,148.97366666666667,,148.97366666666667
89,2011-10-26,142.70204166666667,,142.70204166666667
89,2011-10-27,181.42375,,181.42375
89,2011-10-28,158.90741666666665,,158.90741666666665
89,2011-10-29,141.19404166666666,,141.19404166666666
89,2011-10-30,138.04416666666665,,138.04416666666665
89,2011-10-31,168.32387500000002,,168.32387500000002
89,2011-11-01,179.11983333333333,,179.11983333333333
89,2011-11-02,174.619375,,174.619375
89,2011-11-03,183.46170833333335,,183.46170833333335
89,2011-11-04,166.52599999999998,,166.52599999999998
89,2011-11-05,113.95212500000001,,113.95212500000001
89,2011-11-06,112.928625,,112.928625
89,2011-11-07,151.25304166666666,,151.25304166666666
89,2011-11-08,185.23104166666667,,185.23104166666667
89,2011-11-09,146.34291666666667,,146.34291666666667
89,2011-11-10,202.585375,,202.585375
89,2011-11-11,181.77729166666666,,181.77729166666666
89,2011-11-12,138.015625,,138.015625
89,2011-11-13,134.70170833333333,,134.70170833333333
89,2011-11-14,181.00404166666667,,181.00404166666667
89,2011-11-15,191.75045833333334,,191.75045833333334
89,2011-11-16,191.766375,,191.766375
89,2011-11-17,179.84533333333331,,179.84533333333331
89,2011-11-18,164.36141666666666,,164.36141666666666
89,2011-11-19,44.18625,,44.18625
89,2011-11-20,112.63558333333333,,112.63558333333333
89,2011-11-21,139.412125,,139.412125
89,2011-11-22,68.28716666666666,,68.28716666666666
89,2011-11-23,84.28629166666667,,84.28629166666667
89,2011-11-24,142.89195833333335,,142.89195833333335
89,2011-11-25,143.76654166666665,,143.76654166666665
89,2011-11-26,143.278,,143.278
89,2011-11-27,131.81491666666668,,131.81491666666668
89,2011-11-28,167.02179166666667,,167.02179166666667
89,2011-11-29,209.69254166666667,,209.69254166666667
89,2011-11-30,164.029,,164.029
89,2011-12-01,148.28595833333333,,148.28595833333333
89,2011-12-02,190.67925,,190.67925
89,2011-12-03,161.69408333333334,,161.69408333333334
89,2011-12-04,142.11116666666666,,142.11116666666666
89,2011-12-05,186.82125,,186.82125
89,2011-12-06,214.57341666666665,,214.57341666666665
89,2011-12-07,201.14095833333332,,201.14095833333332
89,2011-12-08,176.455875,,176.455875
89,2011-12-09,175.42358333333334,,175.42358333333334
89,2011-12-10,153.10425,,153.10425
89,2011-12-11,152.49454166666666,,152.49454166666666
89,2011-12-12,178.69025,,178.69025
89,2011-12-13,180.178375,,180.178375
89,2011-12-14,187.20633333333333,,187.20633333333333
89,2011-12-15,190.707625,,190.707625
89,2011-12-16,167.34437499999999,,167.34437499999999
89,2011-12-17,130.41583333333332,,130.41583333333332
89,2011-12-18,121.282,,121.282
89,2011-12-19,165.278875,,165.278875
89,2011-12-20,141.14433333333332,,141.14433333333332
89,2011-12-21,112.88616666666667,,112.88616666666667
89,2011-12-22,98.17054166666667,,98.17054166666667
89,2011-12-23,138.80629166666668,,138.80629166666668
89,2011-12-24,105.39829166666668,,105.39829166666668
89,2011-12-25,96.15833333333335,,96.15833333333335
89,2011-12-26,106.81229166666667,,106.81229166666667
89,2011-12-27,138.59958333333333,,138.59958333333333
89,2011-12-28,137.46275,,137.46275
89,2011-12-29,146.87429166666666,,146.87429166666666
89,2011-12-30,134.82870833333334,,134.82870833333334
89,2011-12-31,115.71320833333334,,115.71320833333334
89,2012-01-01,108.36429166666666,,108.36429166666666
89,2012-01-02,110.55316666666666,,110.55316666666666
89,2012-01-03,138.23679166666668,,138.23679166666668
89,2012-01-04,134.52170833333335,,134.52170833333335
89,2012-01-05,151.989375,,151.989375
89,2012-01-06,140.42458333333335,,140.42458333333335
89,2012-01-07,112.55516666666666,,112.55516666666666
89,2012-01-08,109.86425000000001,,109.86425000000001
89,2012-01-09,150.44508333333332,,150.44508333333332
89,2012-01-10,150.99008333333333,,150.99008333333333
89,2012-01-11,141.93520833333335,,141.93520833333335
89,2012-01-12,135.240875,,135.240875
89,2012-01-13,128.75758333333332,,128.75758333333332
89,2012-01-14,111.01154166666667,,111.01154166666667
89,2012-01-15,109.48004166666668,,109.48004166666668
89,2012-01-16,129.05195833333332,,129.05195833333332
89,2012-01-17,137.41191666666666,,137.41191666666666
89,2012-01-18,139.147875,,139.147875
89,2012-01-19,148.31183333333334,,148.31183333333334
89,2012-01-20,142.42408333333333,,142.42408333333333
89,2012-01-21,112.34633333333333,,112.34633333333333
89,2012-01-22,103.95720833333333,,103.95720833333333
89,2012-01-23,131.16125,,131.16125
89,2012-01-24,143.63104166666668,,143.63104166666668
89,2012-01-25,143.528,,143.528
89,2012-01-26,142.22,,142.22
89,2012-01-27,128.211875,,128.211875
89,2012-01-28,108.86579166666667,,108.86579166666667
89,2012-01-29,104.378875,,104.378875
89,2012-01-30,135.67845833333334,,135.67845833333334
89,2012-01-31,127.39395833333333,,127.39395833333333
89,2012-02-01,131.22875,,131.22875
89,2012-02-02,128.60116666666667,,128.60116666666667
89,2012-02-03,136.98645833333333,,136.98645833333333
89,2012-02-04,120.47208333333333,,120.47208333333333
89,2012-02-05,111.93012499999999,,111.93012499999999
89,2012-02-06,126.92787499999999,,126.92787499999999
89,2012-02-07,128.95770833333333,,128.95770833333333
89,2012-02-08,130.436,,130.436
89,2012-02-09,91.753625,,91.753625
89,2012-02-10,129.08495833333333,,129.08495833333333
89,2012-02-11,107.76741666666668,,107.76741666666668
89,2012-02-12,113.171875,,113.171875
89,2012-02-13,142.224375,,142.224375
89,2012-02-14,138.86166666666665,,138.86166666666665
89,2012-02-15,136.79545833333333,,136.79545833333333
89,2012-02-16,138.12841666666665,,138.12841666666665
89,2012-02-17,126.74308333333333,,126.74308333333333
89,2012-02-18,101.9525,,101.9525
89,2012-02-19,100.42958333333333,,100.42958333333333
89,2012-02-20,120.65608333333334,,120.65608333333334
89,2012-02-21,117.86416666666666,,117.86416666666666
89,2012-02-22,100.73525000000001,,100.73525000000001
89,2012-02-23,111.95329166666666,,111.95329166666666
89,2012-02-24,131.89104166666667,,131.89104166666667
89,2012-02-25,123.70212500000001,,123.70212500000001
89,2012-02-26,110.727625,,110.727625
89,2012-02-27,137.29520833333333,,137.29520833333333
89,2012-02-28,129.14920833333335,,129.14920833333335
89,2012-02-29,129.04545833333333,,129.04545833333333
89,2012-03-01,136.457625,,136.457625
89,2012-03-02,132.17641666666665,,132.17641666666665
89,2012-03-03,98.123875,,98.123875
89,2012-03-04,96.63658333333332,,96.63658333333332
89,2012-03-05,129.71195833333334,,129.71195833333334
89,2012-03-06,135.035625,,135.035625
89,2012-03-07,134.28283333333334,,134.28283333333334
89,2012-03-08,147.80525,,147.80525
89,2012-03-09,179.55579166666666,,179.55579166666666
89,2012-03-10,124.24820833333332,,124.24820833333332
89,2012-03-11,118.41533333333332,,118.41533333333332
89,2012-03-12,153.01054166666668,,153.01054166666668
89,2012-03-13,171.34504166666667,,171.34504166666667
89,2012-03-14,190.12904166666667,,190.12904166666667
89,2012-03-15,158.01375,,158.01375
89,2012-03-16,144.57445833333333,,144.57445833333333
89,2012-03-17,121.19720833333334,,121.19720833333334
89,2012-03-18,119.80137500000001,,119.80137500000001
89,2012-03-19,163.01804166666668,,163.01804166666668
89,2012-03-20,141.386,,141.386
89,2012-03-21,194.03058333333334,,194.03058333333334
89,2012-03-22,202.293,,202.293
89,2012-03-23,177.1665416666667,,177.1665416666667
89,2012-03-24,135.45666666666668,,135.45666666666668
89,2012-03-25,80.140625,,80.140625
89,2012-03-26,134.395125,,134.395125
89,2012-03-27,154.790625,,154.790625
89,2012-03-28,181.30491666666668,,181.30491666666668
89,2012-03-29,202.63,,202.63
89,2012-03-30,160.69229166666665,,160.69229166666665
89,2012-03-31,121.16329166666667,,121.16329166666667
89,2012-04-01,115.90691666666667,,115.90691666666667
89,2012-04-02,167.62354166666668,,167.62354166666668
89,2012-04-03,180.85829166666667,,180.85829166666667
89,2012-04-04,200.30420833333335,,200.30420833333335
89,2012-04-05,193.73258333333334,,193.73258333333334
89,2012-04-06,178.85966666666664,,178.85966666666664
89,2012-04-07,145.343,,145.343
89,2012-04-08,157.02775,,157.02775
89,2012-04-09,181.32495833333334,,181.32495833333334
89,2012-04-10,174.28537500000002,,174.28537500000002
89,2012-04-11,170.05491666666668,,170.05491666666668
89,2012-04-12,205.47366666666667,,205.47366666666667
89,2012-04-13,189.10904166666668,,189.10904166666668
89,2012-04-14,193.997875,,193.997875
89,2012-04-15,182.06941666666668,,182.06941666666668
89,2012-04-16,224.46595833333333,,224.46595833333333
89,2012-04-17,186.61524999999997,,186.61524999999997
89,2012-04-18,184.833,,184.833
89,2012-04-19,172.25141666666664,,172.25141666666664
89,2012-04-20,165.46325,,165.46325
89,2012-04-21,150.78895833333334,,150.78895833333334
89,2012-04-22,131.93337499999998,,131.93337499999998
89,2012-04-23,155.72708333333333,,155.72708333333333
89,2012-04-24,181.72912499999998,,181.72912499999998
89,2012-04-25,187.85833333333335,,187.85833333333335
89,2012-04-26,188.61950000000002,,188.61950000000002
89,2012-04-27,180.41875000000002,,180.41875000000002
89,2012-04-28,147.381875,,147.381875
89,2012-04-29,140.752125,,140.752125
89,2012-04-30,170.373625,,170.373625
89,2012-05-01,195.98749999999998,,195.98749999999998
89,2012-05-02,187.792375,,187.792375
89,2012-05-03,196.37362499999998,,196.37362499999998
89,2012-05-04,221.775,,221.775
89,2012-05-05,178.159,,178.159
89,2012-05-06,148.35275,,148.35275
89,2012-05-07,193.58404166666665,,193.58404166666665
89,2012-05-08,222.97016666666664,,222.97016666666664
89,2012-05-09,245.22216666666668,,245.22216666666668
89,2012-05-10,248.69299999999998,,248.69299999999998
89,2012-05-11,227.31945833333336,,227.31945833333336
89,2012-05-12,203.01387499999998,,203.01387499999998
89,2012-05-13,228.68958333333333,,228.68958333333333
89,2012-05-14,227.4625,,227.4625
89,2012-05-15,193.993125,,193.993125
89,2012-05-16,194.884125,,194.884125
89,2012-05-17,204.01108333333332,,204.01108333333332
89,2012-05-18,214.99995833333332,,214.99995833333332
89,2012-05-19,190.07358333333332,,190.07358333333332
89,2012-05-20,191.60279166666666,,191.60279166666666
89,2012-05-21,237.02712499999998,,237.02712499999998
89,2012-05-22,236.65141666666668,,236.65141666666668
89,2012-05-23,222.7945,,222.7945
89,2012-05-24,208.027875,,208.027875
89,2012-05-25,179.01529166666668,,179.01529166666668
89,2012-05-26,144.19645833333334,,144.19645833333334
89,2012-05-27,141.98820833333335,,141.98820833333335
89,2012-05-28,144.27775,,144.27775
89,2012-05-29,198.38883333333334,,198.38883333333334
89,2012-05-30,167.28754166666667,,167.28754166666667
89,2012-05-31,177.3735,,177.3735
89,2012-06-01,186.34920833333334,,186.34920833333334
89,2012-06-02,154.6165,,154.6165
89,2012-06-03,123.56454166666667,,123.56454166666667
89,2012-06-04,175.84041666666667,,175.84041666666667
89,2012-06-05,190.49095833333334,,190.49095833333334
89,2012-06-06,180.67979166666666,,180.67979166666666
89,2012-06-07,192.06804166666666,,192.06804166666666
89,2012-06-08,183.901375,,183.901375
89,2012-06-09,146.359625,,146.359625
89,2012-06-10,165.53204166666666,,165.53204166666666
89,2012-06-11,185.74575000000002,,185.74575000000002
89,2012-06-12,202.738875,,202.738875
89,2012-06-13,198.33745833333333,,198.33745833333333
89,2012-06-14,218.543,,218.543
89,2012-06-15,188.78679166666666,,188.78679166666666
89,2012-06-16,138.40420833333334,,138.40420833333334
89,2012-06-17,131.14579166666667,,131.14579166666667
89,2012-06-18,169.88958333333332,,169.88958333333332
89,2012-06-19,182.422875,,182.422875
89,2012-06-20,222.1833333333333,,222.1833333333333
89,2012-06-21,242.545,,242.545
89,2012-06-22,176.24020833333336,,176.24020833333336
89,2012-06-23,84.19516666666667,,84.19516666666667
89,2012-06-24,126.36183333333334,,126.36183333333334
89,2012-06-25,186.520125,,186.520125
89,2012-06-26,180.50699999999998,,180.50699999999998
89,2012-06-27,170.96745833333333,,170.96745833333333
89,2012-06-28,110.61245833333334,,110.61245833333334
89,2012-06-29,159.57775,,159.57775
89,2012-06-30,153.62704166666666,,153.62704166666666
89,2012-07-01,140.42308333333332,,140.42308333333332
89,2012-07-02,175.68266666666668,,175.68266666666668
89,2012-07-03,178.514625,,178.514625
89,2012-07-04,140.34787500000002,,140.34787500000002
89,2012-07-05,191.35695833333332,,191.35695833333332
89,2012-07-06,187.43054166666664,,187.43054166666664
89,2012-07-07,161.33266666666665,,161.33266666666665
89,2012-07-08,145.95075,,145.95075
89,2012-07-09,186.46391666666668,,186.46391666666668
89,2012-07-10,195.72220833333333,,195.72220833333333
89,2012-07-11,203.16520833333334,,203.16520833333334
89,2012-07-12,190.61258333333333,,190.61258333333333
89,2012-07-13,189.25900000000001,,189.25900000000001
89,2012-07-14,143.467375,,143.467375
89,2012-07-15,151.75620833333332,,151.75620833333332
89,2012-07-16,203.61391666666668,,203.61391666666668
89,2012-07-17,221.19095833333333,,221.19095833333333
89,2012-07-18,223.47079166666666,,223.47079166666666